Greenville, ME

8:25 AM EDT on April 26, 2017 (GMT -0400)
Greenville

Weather History for KGNR - January, 2013

Change the Weather History Date:

Tuesday, January 1, 2013

  Actual Average (KMLT) Record (KMLT)
Temperature  
Mean Temperature 14 °F -  
Max Temperature 26 °F 24 °F 45 °F (1945)
Min Temperature 0 °F 4 °F -32 °F (1972)
Degree Days  
Heating Degree Days 52    
Moisture  
Dew Point 5 °F    
Average Humidity 73    
Maximum Humidity 92    
Minimum Humidity 59    
Precipitation  
Precipitation 0.00 in - - ()
Sea Level Pressure  
Sea Level Pressure 29.62 in    
Wind  
Wind Speed 7 mph (WNW)    
Max Wind Speed 15 mph    
Max Gust Speed 32 mph    
Averages and records for this station are not official NWS values.
T = Trace of Precipitation, MM = Missing Value Source: NWS Daily Summary

Daily Weather History Graph

Daily Weather History Graph

Search for Another Location

Airport or City:

Trip Planner

Search our weather history database for the weather conditions in past years. The results will help you decide how hot, cold, wet, or windy it might be!

Date:

Astronomy

Jan. 01, 2013 Rise Set
Actual Time 7:18 AM EST 4:05 PM EST
Civil Twilight 6:44 AM EST 4:39 PM EST
Nautical Twilight 6:06 AM EST 5:17 PM EST
Astronomical Twilight 5:31 AM EST 5:53 PM EST
Moon 8:47 PM EST (1/1) 9:16 AM EST (1/1)
Length of Visible Light 9h 55m
Length of Day
8h 47m
Waning Gibbous, 83% of the Moon is Illuminated
Jan 1
Waning Gibbous
Jan 4
Last Quarter
Jan 11
New
Jan 18
First Quarter
Jan 26
Full

Hourly Weather History & Observations

Time (EST) Temp. Windchill Dew Point Humidity Pressure Visibility Wind Dir Wind Speed Gust Speed Precip Events Conditions
12:56 AM 21.9 °F 15.7 °F 19.9 °F 92% 29.53 in - SSW 4.6 mph - N/A   Unknown
1:56 AM 23.0 °F - 19.9 °F 88% 29.53 in - Calm Calm - N/A   Unknown
2:56 AM 23.0 °F 18.4 °F 21.0 °F 92% 29.52 in - Variable 3.5 mph - N/A   Unknown
3:56 AM 26.1 °F 21.9 °F 19.9 °F 78% 29.51 in - Variable 3.5 mph - N/A   Unknown
4:56 AM 25.0 °F 19.3 °F 19.0 °F 78% 29.49 in - Variable 4.6 mph - N/A   Unknown
5:56 AM 24.1 °F 13.1 °F 18.0 °F 77% 29.52 in - NW 11.5 mph 32.2 mph N/A   Unknown
6:56 AM 19.9 °F 11.1 °F 12.0 °F 71% 29.55 in - Variable 6.9 mph - N/A   Unknown
7:56 AM 18.0 °F 6.9 °F 10.0 °F 71% 29.57 in - WNW 9.2 mph 23.0 mph N/A   Unknown
8:56 AM 15.1 °F 1.8 °F 7.0 °F 70% 29.62 in - WNW 11.5 mph 21.9 mph N/A   Unknown
9:56 AM 14.0 °F -1.4 °F 5.0 °F 67% 29.62 in - NW 15.0 mph 28.8 mph N/A   Unknown
10:56 AM 12.0 °F -0.4 °F 1.0 °F 61% 29.63 in - WNW 9.2 mph 27.6 mph N/A   Unknown
11:56 AM 12.0 °F -2.0 °F 1.0 °F 61% 29.60 in - WNW 11.5 mph 26.5 mph N/A   Unknown
12:56 PM 10.9 °F -0.8 °F -0.0 °F 61% 29.61 in - WNW 8.1 mph 24.2 mph N/A   Unknown
1:56 PM 10.9 °F 1.4 °F -0.9 °F 59% 29.62 in - Variable 5.8 mph - N/A   Unknown
2:56 PM 8.1 °F -2.0 °F -0.9 °F 67% 29.63 in - Variable 5.8 mph - N/A   Unknown
3:56 PM 6.1 °F -4.3 °F -2.0 °F 69% 29.64 in - Variable 5.8 mph - N/A   Unknown
4:56 PM 3.9 °F -10.4 °F -4.0 °F 70% 29.65 in - WNW 9.2 mph 26.5 mph N/A   Unknown
5:56 PM 3.0 °F -12.5 °F -4.0 °F 73% 29.66 in - WNW 10.4 mph 21.9 mph N/A   Unknown
6:56 PM 3.0 °F -9.3 °F -2.9 °F 76% 29.70 in - Variable 6.9 mph - N/A   Unknown
7:56 PM 1.9 °F -10.6 °F -4.0 °F 76% 29.70 in - Variable 6.9 mph - N/A   Unknown
8:56 PM 3.0 °F -9.3 °F -2.9 °F 76% 29.70 in - Variable 6.9 mph 21.9 mph N/A   Unknown
9:56 PM 1.9 °F -14.7 °F -5.1 °F 72% 29.71 in - WNW 11.5 mph 27.6 mph N/A   Unknown
10:56 PM 1.0 °F -11.7 °F -6.0 °F 72% 29.75 in - Variable 6.9 mph 19.6 mph N/A   Unknown
11:56 PM -0.9 °F -18.3 °F -9.0 °F 69% 29.74 in - NW 11.5 mph 19.6 mph N/A   Unknown